Mandan, ND

6:18 PM CDT on April 23, 2019 (GMT -0500)
Mandan

Weather History for KY19 - November, 2016

Change the Weather History Date:

Sunday, November 20, 2016

  Actual Average (WUND) Record (WUND)
Temperature  
Mean Temperature 27 °F -  
Max Temperature 37 °F - - (-1)
Min Temperature 17 °F - - (-1)
Degree Days  
Heating Degree Days 38    
Moisture  
Dew Point 21 °F    
Average Humidity 80    
Maximum Humidity 100    
Minimum Humidity 56    
Precipitation  
Precipitation 0.00 in - - ()
Sea Level Pressure  
Sea Level Pressure 30.08 in    
Wind  
Wind Speed 13 mph (SSE)    
Max Wind Speed 21 mph    
Max Gust Speed 31 mph    
Visibility 10 miles    
Events      
Averages and records for this station are not official NWS values.
T = Trace of Precipitation, MM = Missing Value Source: NWS Daily Summary

Daily Weather History Graph

Daily Weather History Graph

Search for Another Location

Airport or City:

Astronomy

Nov. 20, 2016 Rise Set
Actual Time 7:54 AM CST 5:04 PM CST
Civil Twilight 7:20 AM CST 5:37 PM CST
Nautical Twilight 6:43 AM CST 6:14 PM CST
Astronomical Twilight 6:07 AM CST 6:50 PM CST
Moon 11:51 PM CST (11/20) 1:13 PM CST (11/20)
Length of Visible Light 10h 17m
Length of Day
9h 10m
Waning Gibbous, 57% of the Moon is Illuminated
Nov 20
Waning Gibbous
Nov 21
Last Quarter
Nov 29
New
Dec 7
First Quarter
Dec 13
Full

Hourly Weather History & Observations

Time (CST) Temp. Windchill Dew Point Humidity Pressure Visibility Wind Dir Wind Speed Gust Speed Precip Events Conditions
12:15 AM 26.6 °F 13.8 °F 19.4 °F 74% 30.16 in 10.0 mi SE 17.3 mph 21.9 mph N/A   Overcast
12:35 AM 26.6 °F 14.3 °F 19.4 °F 74% 30.15 in 10.0 mi SE 16.1 mph 20.7 mph N/A   Overcast
12:55 AM 26.6 °F 14.7 °F 19.4 °F 74% 30.16 in 10.0 mi SE 15.0 mph - N/A   Mostly Cloudy
1:15 AM 26.6 °F 15.7 °F 19.4 °F 74% 30.14 in 10.0 mi SE 12.7 mph 20.7 mph N/A   Mostly Cloudy
1:35 AM 26.6 °F 12.7 °F 19.4 °F 74% 30.12 in 10.0 mi SE 20.7 mph 25.3 mph N/A   Overcast
1:55 AM 26.6 °F 13.1 °F 19.4 °F 74% 30.11 in 10.0 mi SE 19.6 mph 31.1 mph N/A   Overcast
2:15 AM 26.6 °F 12.7 °F 19.4 °F 74% 30.12 in 10.0 mi SE 20.7 mph 28.8 mph N/A   Overcast
2:35 AM 26.6 °F 14.3 °F 19.4 °F 74% 30.13 in 10.0 mi SSE 16.1 mph 21.9 mph N/A   Scattered Clouds
2:55 AM 26.6 °F 14.3 °F 19.4 °F 74% 30.13 in 10.0 mi SE 16.1 mph 21.9 mph N/A   Scattered Clouds
3:15 AM 26.6 °F 15.2 °F 19.4 °F 74% 30.12 in 10.0 mi SE 13.8 mph - N/A   Scattered Clouds
3:35 AM 26.6 °F 14.3 °F 19.4 °F 74% 30.10 in 10.0 mi SE 16.1 mph 23.0 mph N/A   Mostly Cloudy
3:55 AM 24.8 °F 11.9 °F 19.4 °F 80% 30.10 in 10.0 mi SE 16.1 mph 21.9 mph N/A   Scattered Clouds
4:15 AM 24.8 °F 12.4 °F 19.4 °F 80% 30.09 in 10.0 mi SE 15.0 mph 18.4 mph N/A   Clear
4:35 AM 24.8 °F 12.4 °F 19.4 °F 80% 30.10 in 10.0 mi SE 15.0 mph 19.6 mph N/A   Mostly Cloudy
4:55 AM 24.8 °F 12.9 °F 19.4 °F 80% 30.10 in 10.0 mi SSE 13.8 mph - N/A   Mostly Cloudy
5:15 AM 23.0 °F 11.7 °F 19.4 °F 86% 30.10 in 10.0 mi SSE 11.5 mph - N/A   Partly Cloudy
5:35 AM 23.0 °F 10.6 °F 19.4 °F 86% 30.11 in 10.0 mi SSE 13.8 mph 19.6 mph N/A   Clear
5:55 AM 23.0 °F 11.7 °F 17.6 °F 80% 30.10 in 10.0 mi SSE 11.5 mph - N/A   Clear
6:15 AM 21.2 °F 8.9 °F 17.6 °F 86% 30.10 in 10.0 mi SE 12.7 mph - N/A   Partly Cloudy
6:35 AM 21.2 °F 10.1 °F 17.6 °F 86% 30.11 in 10.0 mi SSE 10.4 mph - N/A   Partly Cloudy
6:55 AM 19.4 °F 7.2 °F 17.6 °F 93% 30.11 in 10.0 mi SSE 11.5 mph - N/A   Clear
7:15 AM 19.4 °F 8.6 °F 17.6 °F 93% 30.11 in 10.0 mi SE 9.2 mph - N/A   Clear
7:35 AM 19.4 °F 10.4 °F 17.6 °F 93% 30.12 in 10.0 mi SSE 6.9 mph - N/A   Clear
7:55 AM 17.6 °F 7.3 °F 15.8 °F 93% 30.11 in 10.0 mi SE 8.1 mph - N/A   Mostly Cloudy
8:15 AM 19.4 °F 7.2 °F 17.6 °F 93% 30.09 in 10.0 mi SE 11.5 mph - N/A   Mostly Cloudy
8:35 AM 19.4 °F 8.6 °F 17.6 °F 93% 30.11 in 10.0 mi SE 9.2 mph - N/A   Mostly Cloudy
8:55 AM 21.2 °F 10.9 °F 17.6 °F 86% 30.10 in 10.0 mi SE 9.2 mph - N/A   Mostly Cloudy
9:15 AM 23.0 °F 13.1 °F 17.6 °F 80% 30.10 in 10.0 mi SSE 9.2 mph - N/A   Overcast
9:35 AM 23.0 °F 11.7 °F 19.4 °F 86% 30.10 in 10.0 mi SSE 11.5 mph - N/A   Overcast
9:55 AM 24.8 °F 15.3 °F 19.4 °F 80% 30.10 in 10.0 mi SSE 9.2 mph - N/A   Overcast
10:15 AM 24.8 °F 14.6 °F 19.4 °F 80% 30.10 in 10.0 mi SSE 10.4 mph - N/A   Overcast
10:35 AM 26.6 °F 17.5 °F 21.2 °F 80% 30.10 in 10.0 mi South 9.2 mph - N/A   Overcast
10:55 AM 26.6 °F 17.5 °F 21.2 °F 80% 30.10 in 10.0 mi South 9.2 mph - N/A   Overcast
11:15 AM 26.6 °F 18.2 °F 21.2 °F 80% 30.10 in 10.0 mi South 8.1 mph - N/A   Overcast
11:35 AM 28.4 °F 18.5 °F 21.2 °F 74% 30.09 in 10.0 mi South 11.5 mph - N/A   Mostly Cloudy
11:55 AM 28.4 °F 19.1 °F 21.2 °F 74% 30.08 in 10.0 mi South 10.4 mph - N/A   Clear
12:15 PM 30.2 °F 21.9 °F 21.2 °F 69% 30.07 in 10.0 mi South 9.2 mph - N/A   Clear
12:35 PM 32.0 °F 24.2 °F 23.0 °F 69% 30.06 in 10.0 mi SSE 9.2 mph - N/A   Clear
12:55 PM 32.0 °F 23.0 °F 23.0 °F 69% 30.05 in 10.0 mi SSE 11.5 mph 16.1 mph N/A   Clear
1:15 PM 32.0 °F 24.2 °F 23.0 °F 69% 30.05 in 10.0 mi SSE 9.2 mph - N/A   Clear
1:35 PM 33.8 °F 26.4 °F 23.0 °F 65% 30.05 in 10.0 mi SSE 9.2 mph - N/A   Clear
1:55 PM 35.6 °F 28.6 °F 23.0 °F 60% 30.04 in 10.0 mi SE 9.2 mph - N/A   Clear
2:15 PM 35.6 °F 29.2 °F 23.0 °F 60% 30.04 in 10.0 mi South 8.1 mph - N/A   Clear
2:35 PM 35.6 °F 29.2 °F 23.0 °F 60% 30.04 in 10.0 mi SSE 8.1 mph - N/A   Clear
2:55 PM 35.6 °F 29.2 °F 23.0 °F 60% 30.03 in 10.0 mi SSE 8.1 mph - N/A   Clear
3:15 PM 37.4 °F 30.8 °F 23.0 °F 56% 30.04 in 10.0 mi SSE 9.2 mph - N/A   Clear
3:35 PM 35.6 °F 28.0 °F 23.0 °F 60% 30.04 in 10.0 mi SSE 10.4 mph - N/A   Clear
3:55 PM 35.6 °F 27.1 °F 23.0 °F 60% 30.04 in 10.0 mi SSE 12.7 mph - N/A   Clear
4:15 PM 33.8 °F 25.8 °F 23.0 °F 65% 30.04 in 10.0 mi SSE 10.4 mph - N/A   Clear
4:35 PM 32.0 °F 25.6 °F 23.0 °F 69% 30.05 in 10.0 mi SSE 6.9 mph - N/A   Clear
4:55 PM 30.2 °F 22.6 °F 23.0 °F 75% 30.04 in 10.0 mi South 8.1 mph - N/A   Clear
5:15 PM 28.4 °F 19.7 °F 23.0 °F 80% 30.05 in 10.0 mi South 9.2 mph - N/A   Clear
5:35 PM 28.4 °F 19.7 °F 23.0 °F 80% 30.05 in 10.0 mi SSE 9.2 mph - N/A   Clear
5:55 PM 26.6 °F 17.5 °F 23.0 °F 86% 30.05 in 10.0 mi SSE 9.2 mph - N/A   Clear
6:15 PM 26.6 °F 16.8 °F 23.0 °F 86% 30.05 in 10.0 mi SSE 10.4 mph - N/A   Clear
6:35 PM 26.6 °F 16.2 °F 23.0 °F 86% 30.05 in 10.0 mi SSE 11.5 mph - N/A   Clear
6:55 PM 26.6 °F 16.8 °F 23.0 °F 86% 30.05 in 10.0 mi SSE 10.4 mph - N/A   Clear
7:15 PM 26.6 °F 18.2 °F 23.0 °F 86% 30.04 in 10.0 mi SSE 8.1 mph - N/A   Clear
7:35 PM 23.0 °F 14.7 °F 21.2 °F 93% 30.04 in 10.0 mi SE 6.9 mph - N/A   Clear
7:55 PM 23.0 °F 14.7 °F 19.4 °F 86% 30.04 in 10.0 mi SE 6.9 mph - N/A   Clear
8:15 PM 23.0 °F 14.7 °F 19.4 °F 86% 30.04 in 10.0 mi SE 6.9 mph - N/A   Clear
8:35 PM 23.0 °F 12.4 °F 21.2 °F 93% 30.03 in 10.0 mi SSE 10.4 mph - N/A   Clear
8:55 PM 24.8 °F 14.0 °F 23.0 °F 93% 30.03 in 10.0 mi SSE 11.5 mph - N/A   Clear
9:15 PM 24.8 °F 14.0 °F 23.0 °F 93% 30.04 in 10.0 mi SSE 11.5 mph - N/A   Clear
9:35 PM 24.8 °F 12.9 °F 23.0 °F 93% 30.03 in 10.0 mi South 13.8 mph - N/A   Clear
9:55 PM 24.8 °F 14.6 °F 23.0 °F 93% 30.03 in 10.0 mi SSE 10.4 mph - N/A   Clear
10:15 PM 23.0 °F 11.7 °F 23.0 °F 100% 30.03 in 10.0 mi SE 11.5 mph - N/A   Clear
10:35 PM 24.8 °F 14.0 °F 23.0 °F 93% 30.03 in 10.0 mi SSE 11.5 mph - N/A   Clear
10:55 PM 24.8 °F 14.6 °F 23.0 °F 93% 30.02 in 10.0 mi SSE 10.4 mph - N/A   Clear
11:15 PM 23.0 °F 13.9 °F 23.0 °F 100% 30.03 in 10.0 mi SSE 8.1 mph - N/A   Clear
11:35 PM 23.0 °F 13.9 °F 21.2 °F 93% 30.03 in 10.0 mi SE 8.1 mph - N/A   Clear
11:55 PM 23.0 °F 13.9 °F 21.2 °F 93% 30.02 in 10.0 mi SE 8.1 mph - N/A   Clear